Location: Newark
(5.8900°S, 42.6378°W)
Time: 19:41:35
(UTC+00:00)

Envisat - Visible Passes

Search period start: 18 August 2019 00:00
Search period end: 28 August 2019 00:00
Orbit: 764 x 766 km, 98.1° (Epoch: 17 August)

Date Brightness Start Highest point End Pass type
(mag) Time Alt. Az. Time Alt. Az. Time Alt. Az.
18 Aug 3.2 21:16:19 10° SSE 21:21:14 50° ENE 21:26:08 10° N visible
19 Aug 5.0 22:19:05 10° SSW 22:23:19 27° WSW 22:27:32 10° NW visible
20 Aug 3.2 21:41:36 10° S 21:46:41 77° WSW 21:51:44 10° NNW visible
21 Aug 3.6 21:05:20 10° SE 21:10:01 37° ENE 21:14:39 10° NNE visible
21 Aug 5.9 22:46:28 10° SW 22:48:41 13° WSW 22:50:53 10° WNW visible
22 Aug 4.5 22:07:28 10° S 22:12:06 36° WSW 22:16:43 10° NW visible
23 Aug 2.9 21:30:22 10° SSE 21:35:28 79° ENE 21:40:32 10° N visible
24 Aug 5.9 08:28:05 10° ENE 08:30:55 15° ESE 08:33:45 10° SE visible
24 Aug 5.6 22:34:10 10° SW 22:37:30 18° WSW 22:40:49 10° WNW visible
25 Aug 3.9 21:56:00 10° S 22:00:54 49° WSW 22:05:47 10° NNW visible
26 Aug 3.1 21:19:15 10° SSE 21:24:14 57° ENE 21:29:12 10° N visible
27 Aug 6.4 08:18:37 10° E 08:19:44 11° ESE 08:20:52 10° ESE visible
27 Aug 5.2 22:22:17 10° SSW 22:26:18 24° WSW 22:30:19 10° NW visible
